sat.trackr.live / text

‹ back to catalog

STARLINK-36569

NORAD 67553 · 2026-014X

PAYLOAD ACTIVE UNKNOWN

§ Identity

Operator
Country
US
Launch date
2026-01-22
Launch site
AFWTR
Launch vehicle
Mass (kg)
RCS (m²)

Purposes: comms

External: N2YO · Heavens-Above · Gunter

§ Orbital elements

Epoch: 2026-05-25T03:35:04.912224Z

Period
93.91 min
Inclination
97.2858°
Eccentricity
0.0001419
Mean motion
15.33452973 rev/d
Perigee alt
464.5 km
Apogee alt
466.5 km
Semi-major
6,843.7 km
B*
4.0935e-4
RAAN
32.2362°
Arg perigee
96.9246°
Mean anomaly
263.2158°
Rev number
2,049

§ Raw data

STARLINK-365691 67553U 26014X   26145.14936241  .00013167  00000+0  40935-3 0  99982 67553  97.2858  32.2362 0001419  96.9246 263.2158 15.33452973 20490

JSON: /api/v1/satellites/67553 · /tle

For live sub-satellite position, see the globe view (requires WebGL).

§ Visibility from observer

Set your observer location to see the next 7 days of passes ≥ 10°. The values pass through the URL so the page stays shareable.

No JS? Fill the form by hand. The geolocation button needs JavaScript.